Location: Fuglau
(48.6333°N, 15.5500°E)
Time: 20:05:59
(UTC+00:00)

SJ-6B - Pass Details

Date: 27 February 2020
Orbit: 511 x 581 km, 97.6° (Epoch: 03 April)

Event Time Altitude Azimuth Distance (km) Brightness Sun altitude
Exits shadow 17:53:09 22° 104° (ESE) 1,184 3.9 -13.3°
Maximum altitude 17:54:36 28° 67° (ENE) 1,001 3.6 -13.5°
Drops below altitude 10° 17:57:54 10° 7° (N) 1,781 5.4 -14.1°
Sets 18:00:13 0° 356° (N) 2,687 6.4 -14.4°
